INSPIRE-Sat 7 (56211 NORAD) Tracking and Keplerian Element Data

This shows tracking and keplerian element data for the satellite.

Feedback or suggestion? Click here.




ElementValue
Catalog56211
NameINSPIRE-Sat 7
Epoch Orbit6469
Epoch Day158.46511489
Epoch Year2024
RAAN59.338
Inclination97.3657
Eccentricity0.0009863
Argument of Perigee152.4764
Mean Anonmoly207.7013
Mean Motion15.53025993
Decay Rate0.0008587
L11 56211U 23054AK 24158.46511489 .00085870 00000-0 13622-2 0 9991
L22 56211 97.3657 59.3380 0009863 152.4764 207.7013 15.53025993 64694



Live tracking and technical data element details for INSPIRE-Sat 7 (NORAD 56211). INSPIRE-Sat 7 can be tracked NOW for your location showing map with azimuth and elevation plus other details from your city location.







IsCatalogInMostPopularTable: catalog: 56211, numindb: 32
Update: records affected: 1



GetName: 56211 INSPIRE-Sat 7

Hit Count: updated at: Thu, 23 Jan 2025 18:07:43 GMT